21° challenge de l'entité sonégienne - 2016


Challenge Soignies 2016

Soignies - 2° jogging de printemps - 2016

Dénomination   Soignies - 2° jogging de printemps - 2016   10 kms
Date   dimanche 13 mars 2016  
Adresse  Collège Saint-Vincent
 Chaussée de Braine,
 7060 Soignies
    Voir carte d'accès
Contact

 Grégory Rouchy

  

   067/33.13.83
Courses  10 kms
 4 kms
 10 kms Han
 
 
Inscriptions    
Parcours      

        Palmares de la course :

Course

Catégorie

Vainqueur

10 kms Espoirs VANDERLINDEN Henri CORDIER Ashley VERSTICHEL Quentin
10 kms Seniors SCARSET Stéphane FOUSS François DADA Mohamed
10 kms Vétérans 1 DUPONT Eddy DE SMET Kristof DURANT Patrick
10 kms Vétérans 2 PACQUET Dominique MARTORANA Antonio GULLOTTA Antonino
10 kms Vétérans 3 STOPPIE Filip OLIVIERO Remo VAN HONACKER Etienne
10 kms Vétérans 4 BEKERS Noël KESTELOOT Jacques ERAERTS Willy
10 kms Jeunes Filles HOUREZ Léa
10 kms Dames DE COUCK Lindsay HOUBA Isabelle DELHOVE Marie
10 kms Aînées 1 TURCK Pascale COUSSEMENT Valérie VOS Karine
10 kms Aînées 2 BAKRIM Fatima KOOB Marie-Cécile BEAUCARNE Anne
10 kms Aînées 3 PARISIS Marie-Christine VEKEMAN Bernadette SCHOUPPE Anita
4 kms Messieurs NEMETH Christian FOURMANOIR Michaël VANBELLAIENGH Julien
4 kms Dames SOLAGNA Manon VANDERLINDEN Louise DE VOS Véronique
Course : 10 kms
Document PDF de la course
Pla. Pl.Cat Dossard Nom                       Catégorie     Temps     Course   Vitesse Min/Km
_____________________________________________________________________________________________
1 1 637 DUPONT Eddy Vétérans 1 00:37:10 10 kms 16.627 3:36
2 1 613 SCARSET Stéphane Seniors 00:37:34 10 kms 16.450 3:38
3 2 478 FOUSS François Seniors 00:37:48 10 kms 16.349 3:40
4 2 330 DE SMET Kristof Vétérans 1 00:38:07 10 kms 16.213 3:42
5 1 494 PACQUET Dominique Vétérans 2 00:38:17 10 kms 16.142 3:43
6 3 623 DADA Mohamed Seniors 00:38:20 10 kms 16.121 3:43
7 4 636 SMEYERO Nicolas Seniors 00:38:22 10 kms 16.107 3:43
8 1 428 VANDERLINDEN Henri Espoirs 00:38:25 10 kms 16.086 3:43
9 3 399 DURANT Patrick Vétérans 1 00:38:27 10 kms 16.072 3:43
10 5 621 EL YOUSFI Rida Seniors 00:38:29 10 kms 16.058 3:44
11 6 340 FRANCOIS Benoît Seniors 00:38:46 10 kms 15.941 3:45
12 7 373 SEVENS Quentin Seniors 00:38:48 10 kms 15.927 3:46
13 8 375 MALAVIOLLE Xavier Seniors 00:39:05 10 kms 15.812 3:47
14 9 370 ROOSENS Frans Seniors 00:39:27 10 kms 15.665 3:49
15 4 394 PLATBROOD Pol Vétérans 1 00:39:47 10 kms 15.534 3:51
16 10 331 DESSILLY Nicolas Seniors 00:41:03 10 kms 15.054 3:59
17 5 601 VIART Gilles Vétérans 1 00:41:44 10 kms 14.808 4:03
18 2 465 MARTORANA Antonio Vétérans 2 00:41:54 10 kms 14.749 4:04
19 11 346 HERPOEL Nicolas Seniors 00:42:09 10 kms 14.661 4:05
20 12 666 DOS SANTOS Ianicio Seniors 00:42:23 10 kms 14.581 4:06
21 3 412 GULLOTTA Antonino Vétérans 2 00:42:27 10 kms 14.558 4:07
22 6 401 TIMMERMANS David Vétérans 1 00:42:39 10 kms 14.490 4:08
23 4 464 TILTE Antonio Vétérans 2 00:42:55 10 kms 14.400 4:10
24 7 432 DASSELEER Christian Vétérans 1 00:42:57 10 kms 14.388 4:10
25 5 393 BEIGNE Francis Vétérans 2 00:43:00 10 kms 14.372 4:10
26 13 435 QUERTON Michaël Seniors 00:43:02 10 kms 14.360 4:10
27 14 654 BOTTE Nicolas Seniors 00:43:05 10 kms 14.344 4:10
28 15 329 DESCAMPS François Seniors 00:43:18 10 kms 14.272 4:12
29 16 629 VANGEEL Julien Seniors 00:43:21 10 kms 14.256 4:12
30 8 439 FLAMENT Patrice Vétérans 1 00:43:28 10 kms 14.217 4:13
31 9 476 DOCLOT Frédéric Vétérans 1 00:43:49 10 kms 14.104 4:15
32 6 433 CULOT Jean-Marc Vétérans 2 00:44:03 10 kms 14.029 4:16
33 17 355 MABILLE Olivier Seniors 00:44:16 10 kms 13.960 4:17
34 18 426 BOSTEM Stéphane Seniors 00:44:20 10 kms 13.939 4:18
35 19 489 VANDENBRANDE Steven Seniors 00:44:21 10 kms 13.934 4:18
36 10 320 CHARASSON Olivier Vétérans 1 00:44:27 10 kms 13.903 4:18
37 7 622 EL KHALDI Abdel Vétérans 2 00:44:38 10 kms 13.846 4:20
38 11 416 NOCITRA Giacomo Vétérans 1 00:44:41 10 kms 13.830 4:20
39 20 417 RIFFLART Gérald Seniors 00:44:57 10 kms 13.748 4:21
40 21 651 HEURION Bertrand Seniors 00:45:11 10 kms 13.677 4:23
41 8 345 HANON Marius Vétérans 2 00:45:13 10 kms 13.667 4:23
42 12 466 HORLIN Gaëtan Vétérans 1 00:45:25 10 kms 13.607 4:24
43 13 308 ABRAHAM Michel Vétérans 1 00:45:32 10 kms 13.572 4:25
44 22 314 BEKAERT Thomas Seniors 00:45:46 10 kms 13.503 4:26
45 1 457 STOPPIE Filip Vétérans 3 00:45:52 10 kms 13.473 4:27
46 23 321 CZEPAK Yannick Seniors 00:45:56 10 kms 13.454 4:27
47 14 429 PECCENINI Stéphane Vétérans 1 00:45:58 10 kms 13.444 4:27
48 24 491 BRANCART Pol Seniors 00:46:01 10 kms 13.429 4:28
49 15 415 PASSARELLO Guiseppe Vétérans 1 00:46:04 10 kms 13.415 4:28
50 9 462 BAGLIONE Luigi Vétérans 2 00:46:06 10 kms 13.405 4:28
51 25 664 DESGAIN Thomas Seniors 00:46:14 10 kms 13.366 4:29
52 2 397 CORDIER Ashley Espoirs 00:46:20 10 kms 13.338 4:29
53 26 646 DOSIMONT Sébastien Seniors 00:46:23 10 kms 13.323 4:30
54 27 424 BOCKLANDT Julian Seniors 00:46:25 10 kms 13.314 4:30
55 16 431 HAULAIT Alain Vétérans 1 00:46:28 10 kms 13.299 4:30
56 17 604 DELCORDE Bernard Vétérans 1 00:46:31 10 kms 13.285 4:30
57 18 390 VOLINO Fabrizio Vétérans 1 00:46:42 10 kms 13.233 4:32
58 28 447 GREUSE Dimitri Seniors 00:46:44 10 kms 13.223 4:32
59 2 418 OLIVIERO Remo Vétérans 3 00:47:04 10 kms 13.130 4:34
60 29 452 VRANCK Laurent Seniors 00:47:14 10 kms 13.083 4:35
61 30 381 WILMS Fabien Seniors 00:47:18 10 kms 13.065 4:35
62 3 450 VAN HONACKER Etienne Vétérans 3 00:47:22 10 kms 13.047 4:35
63 19 639 BUTTOL Xavier Vétérans 1 00:47:25 10 kms 13.033 4:36
64 1 434 PARISIS Marie-Christine Aînées 3 00:47:28 10 kms 13.019 4:36 65 20 356 MAHAUX Frank Vétérans 1 00:47:39 10 kms 12.969 4:37 66 31 472 DURIE Benjamin Seniors 00:47:43 10 kms 12.951 4:37 67 32 496 GUYAUX Sylvain Seniors 00:47:45 10 kms 12.942 4:38 68 33 359 MEYVISCH Jean-Christophe Seniors 00:47:47 10 kms 12.933 4:38 69 21 427 LIVIAU Emmanuel Vétérans 1 00:47:50 10 kms 12.919 4:38 70 34 633 VANDENBUSSCHE François Seniors 00:47:52 10 kms 12.910 4:38 71 22 349 KENDA Damien Vétérans 1 00:47:55 10 kms 12.897 4:39 72 35 488 SEMAILLE Julien Seniors 00:47:58 10 kms 12.883 4:39 73 36 635 VANHEUVERZWIJN Charles-EliSeniors 00:48:10 10 kms 12.830 4:40 74 37 456 BELFIORE Pietro Seniors 00:48:37 10 kms 12.711 4:43 75 23 638 HOST Vincent Vétérans 1 00:48:43 10 kms 12.685 4:43 76 1 603 BAKRIM Fatima Aînées 2 00:48:46 10 kms 12.672 4:44 77 24 602 SPEMANS Christophe Vétérans 1 00:48:48 10 kms 12.663 4:44 78 25 362 ROLAND Benoît Vétérans 1 00:48:51 10 kms 12.650 4:44 79 26 642 DELAUNOIS David Vétérans 1 00:48:57 10 kms 12.625 4:45 80 38 437 SOLBREUX Guillaume Seniors 00:49:02 10 kms 12.603 4:45 81 27 492 SIBILLE Geoffrey Vétérans 1 00:49:12 10 kms 12.560 4:46 82 39 333 DE WALQUE Grégoire Seniors 00:49:14 10 kms 12.552 4:46 83 28 430 ERTVELD Eric Vétérans 1 00:49:16 10 kms 12.543 4:46 84 29 301 THIENPONT Ivan Vétérans 1 00:49:18 10 kms 12.535 4:47 85 40 374 SPILTOIR Mathieu Seniors 00:49:23 10 kms 12.514 4:47 86 10 645 POTTIEZ Philippe Vétérans 2 00:49:27 10 kms 12.497 4:48 87 3 451 VERSTICHEL Quentin Espoirs 00:49:41 10 kms 12.438 4:49 88 41 606 DE CONINCK Benoît Seniors 00:49:54 10 kms 12.384 4:50 89 42 420 RACCUGLIA Allessandro Seniors 00:49:58 10 kms 12.368 4:51 90 43 441 RASSART Julien Seniors 00:50:01 10 kms 12.355 4:51 91 30 419 JOLY Michel Vétérans 1 00:50:03 10 kms 12.347 4:51 92 44 392 KELLY James Seniors 00:50:06 10 kms 12.335 4:51 93 1 323 DE COUCK Lindsay Dames 00:50:08 10 kms 12.327 4:52 94 31 470 LEPOUTRE Stéphane Vétérans 1 00:50:11 10 kms 12.314 4:52 95 45 482 DEWINNE Julien Seniors 00:50:23 10 kms 12.265 4:53 96 46 634 VAN HONACKER Yohann Seniors 00:50:26 10 kms 12.253 4:53 97 4 410 MARSILLE Thierry Vétérans 3 00:50:28 10 kms 12.245 4:53 98 47 479 DEMARET Gilles Seniors 00:50:57 10 kms 12.129 4:56 99 48 455 COULON Maxime Seniors 00:51:00 10 kms 12.117 4:57 100 5 490 NOEL Serge Vétérans 3 00:51:08 10 kms 12.086 4:57 101 49 341 GALLUCIO Gaël Seniors 00:51:16 10 kms 12.054 4:58 102 2 350 KOOB Marie-Cécile Aînées 2 00:51:22 10 kms 12.031 4:59 103 32 352 LEWILLION Philippe Vétérans 1 00:51:24 10 kms 12.023 4:59 104 50 302 THYS Laurent Seniors 00:51:31 10 kms 11.996 5:00 105 1 473 HOUREZ Léa Jeunes Filles 00:51:40 10 kms 11.961 5:00 106 33 379 BERTAU Yves Vétérans 1 00:51:42 10 kms 11.953 5:01 107 34 643 DEMEUSE David Vétérans 1 00:51:45 10 kms 11.942 5:01 108 11 358 MATAGNE Jean-Pierre Vétérans 2 00:51:48 10 kms 11.930 5:01 109 35 655 DE BACKER Dave Vétérans 1 00:51:51 10 kms 11.918 5:02 110 12 369 RONDEAU Philippe Vétérans 2 00:51:53 10 kms 11.911 5:02 111 13 315 BERDOUX Jacques Vétérans 2 00:51:56 10 kms 11.899 5:02 112 51 371 ROOSENS Marc Seniors 00:52:14 10 kms 11.831 5:04 113 52 319 BUFFE Geoffroy Seniors 00:52:17 10 kms 11.820 5:04 114 14 632 COSTENOBLE Vincent Vétérans 2 00:52:41 10 kms 11.730 5:06 115 15 421 DELEU Patrick Vétérans 2 00:52:52 10 kms 11.689 5:07 116 53 467 BERTI Lorenzo Seniors 00:53:01 10 kms 11.656 5:08 117 36 463 BERTI Piero Vétérans 1 00:53:04 10 kms 11.645 5:09 118 6 328 DE RASSENFOSSE Jacques Vétérans 3 00:53:07 10 kms 11.634 5:09 119 54 408 BERTRAND Dominique Seniors 00:53:14 10 kms 11.609 5:10 120 1 303 TURCK Pascale Aînées 1 00:53:16 10 kms 11.602 5:10 121 55 454 APRILE Michaël Seniors 00:53:19 10 kms 11.591 5:10 122 16 650 DAUCHOT Jean-Luc Vétérans 2 00:53:21 10 kms 11.583 5:10 123 37 486 VANDERBEQ Hugues Vétérans 1 00:53:24 10 kms 11.573 5:11 124 17 487 BUYL Léopold Vétérans 2 00:53:29 10 kms 11.555 5:11 125 38 326 DELBUSHAYE Benoît Vétérans 1 00:53:32 10 kms 11.544 5:11 126 2 398 VEKEMAN Bernadette Aînées 3 00:53:42 10 kms 11.508 5:12 127 18 336 DUFRANE Michel Vétérans 2 00:53:49 10 kms 11.483 5:13 128 39 667 LANDRAIN Renaud Vétérans 1 00:53:51 10 kms 11.476 5:13 129 2 485 COUSSEMENT Valérie Aînées 1 00:53:55 10 kms 11.462 5:14 130 56 628 MASURE Jonathan Seniors 00:53:59 10 kms 11.447 5:14 131 40 498 MOSSELMANS Olivier Vétérans 1 00:54:03 10 kms 11.433 5:14 132 41 495 VAN EERDEWEGH Francis Vétérans 1 00:54:15 10 kms 11.391 5:16 133 3 607 BEAUCARNE Anne Aînées 2 00:54:19 10 kms 11.377 5:16 134 19 442 BELFIORE Adriano Vétérans 2 00:54:28 10 kms 11.346 5:17 135 42 386 ROOS Joël Vétérans 1 00:54:36 10 kms 11.318 5:18 136 57 497 DUFOUR David Seniors 00:54:38 10 kms 11.311 5:18 137 58 448 DELATTE Sylvain Seniors 00:54:40 10 kms 11.304 5:18 138 59 612 CROHIN Gaëtan Seniors 00:54:42 10 kms 11.297 5:18 139 20 385 FONTESSE Michaël Vétérans 2 00:54:46 10 kms 11.284 5:19 140 60 631 DELHOVE Francis Seniors 00:54:49 10 kms 11.273 5:19 141 21 653 VANGOETHEM Thierry Vétérans 2 00:54:51 10 kms 11.267 5:19 142 2 347 HOUBA Isabelle Dames 00:54:55 10 kms 11.253 5:19 143 43 438 DEFILIPPA Guiseppe Vétérans 1 00:54:57 10 kms 11.246 5:20 144 3 630 DELHOVE Marie Dames 00:55:07 10 kms 11.212 5:21 145 61 423 HEYMANS Jérémy Seniors 00:55:31 10 kms 11.131 5:23 146 3 652 VOS Karine Aînées 1 00:55:44 10 kms 11.088 5:24 147 4 500 GAUTHIER Cécile Aînées 2 00:55:49 10 kms 11.071 5:25 148 1 312 BEKERS Noël Vétérans 4 00:55:54 10 kms 11.055 5:25 149 4 605 DENEUMOUSTIER Eve Dames 00:55:58 10 kms 11.042 5:26 150 62 338 DUQUESNE Stéphane Seniors 00:56:17 10 kms 10.980 5:27 151 5 327 DEMARET Alison Dames 00:56:25 10 kms 10.954 5:28 152 6 662 MAU??? Marie-Eve Dames 00:56:33 10 kms 10.928 5:29 153 44 620 LAURENT Serge Vétérans 1 00:56:36 10 kms 10.918 5:29 154 4 475 DEWITTE Christelle Aînées 1 00:56:41 10 kms 10.902 5:30 155 63 461 MODEST Erwin Seniors 00:56:44 10 kms 10.893 5:30 156 45 378 COLLIN Emmanuel Vétérans 1 00:57:03 10 kms 10.832 5:32 157 7 657 SEGHERS Nathalie Dames 00:57:09 10 kms 10.813 5:32 158 5 624 SASSEL Bénédicte Aînées 1 00:57:16 10 kms 10.791 5:33 159 6 615 MAURY Isabelle Aînées 1 00:57:30 10 kms 10.747 5:34 160 64 305 VANDEROSE Christophe Seniors 00:57:36 10 kms 10.729 5:35 161 7 402 LAENENS Francis Vétérans 3 00:57:39 10 kms 10.719 5:35 162 7 474 DEMOULIN Delphine Aînées 1 00:58:01 10 kms 10.652 5:37 163 22 648 REMUE Michel Vétérans 2 00:58:03 10 kms 10.645 5:38 164 65 627 COLLE Ludovic Seniors 00:58:08 10 kms 10.630 5:38 165 5 614 TAEVERNIER Nathalie Aînées 2 00:58:11 10 kms 10.621 5:38 166 23 640 GOSSET Didier Vétérans 2 00:58:13 10 kms 10.615 5:39 167 8 422 VANDENBEMPT Julie Aînées 1 00:58:15 10 kms 10.609 5:39 168 66 324 DE GRANDE David Seniors 00:58:17 10 kms 10.603 5:39 169 9 616 SIRAULT Caroline Aînées 1 00:58:19 10 kms 10.597 5:39 170 6 443 DEFILIPPA Venerina Aînées 2 00:58:28 10 kms 10.570 5:40 171 46 391 ERSKINE Carl Vétérans 1 00:58:52 10 kms 10.498 5:42 172 10 619 PIERART Myriam Aînées 1 00:59:12 10 kms 10.439 5:44 173 47 499 VAN DEN BERG Frédéric Vétérans 1 00:59:14 10 kms 10.433 5:45 174 11 425 VAN HECKE Catherine Aînées 1 00:59:16 10 kms 10.427 5:45 175 12 310 BECHET Cécile Aînées 1 00:59:18 10 kms 10.421 5:45 176 24 446 LEPINE Jean-François Vétérans 2 00:59:21 10 kms 10.412 5:45 177 7 444 GADDI Lorella Aînées 2 00:59:24 10 kms 10.404 5:46 178 8 318 BOUILLIEZ Dominique Vétérans 3 00:59:26 10 kms 10.398 5:46 179 8 663 ROSSAY Judith Dames 00:59:32 10 kms 10.380 5:46 180 3 395 SCHOUPPE Anita Aînées 3 00:59:35 10 kms 10.372 5:47 181 13 460 WAUTELET Aurélie Aînées 1 00:59:37 10 kms 10.366 5:47 182 48 481 GORNIAK Romuald Vétérans 1 00:59:40 10 kms 10.357 5:47 183 67 600 DE VREESE Sébastien Seniors 00:59:44 10 kms 10.345 5:47 184 25 449 VERSTICHEL Thierry Vétérans 2 00:59:52 10 kms 10.322 5:48 185 26 445 VANDERHAEGEN Christian Vétérans 2 01:00:11 10 kms 10.268 5:50 186 49 644 GILIS Laurent Vétérans 1 01:00:23 10 kms 10.234 5:51 187 68 659 HEYNEN Thomas Seniors 01:00:27 10 kms 10.223 5:52 188 69 459 PLISMIER Frédéric Seniors 01:00:32 10 kms 10.209 5:52 189 14 493 BRAY Sybille Aînées 1 01:00:41 10 kms 10.184 5:53 190 15 471 VITSKENS Lara Aînées 1 01:00:54 10 kms 10.147 5:54 191 27 658 HEYNEN Christian Vétérans 2 01:00:56 10 kms 10.142 5:54 192 16 660 PIERRE Laurence Aînées 1 01:01:05 10 kms 10.117 5:55 193 9 661 DELSAUT Emeline Dames 01:01:09 10 kms 10.106 5:56 194 10 483 MALBRECQ Clémence Dames 01:01:12 10 kms 10.098 5:56 195 28 484 GUISEPPE Anzaldi Vétérans 2 01:01:14 10 kms 10.092 5:56 196 2 400 KESTELOOT Jacques Vétérans 4 01:01:48 10 kms 10.000 6:00 197 29 388 MOREAUX Patrick Vétérans 2 01:01:55 10 kms 9.981 6:00 198 17 458 CURRI Sabrina Aînées 1 01:01:58 10 kms 9.973 6:00 199 11 477 CHEVALIER Manon Dames 01:02:17 10 kms 9.922 6:02 200 18 387 SANTOS SOUZA Milla Aînées 1 01:02:24 10 kms 9.903 6:03 201 8 344 GOBLET Carine Aînées 2 01:02:37 10 kms 9.869 6:04 202 12 307 REMY Noëlle Dames 01:03:50 10 kms 9.681 6:11 203 19 361 MUSETTE Déborah Aînées 1 01:03:56 10 kms 9.666 6:12 204 4 306 WILLOCQ Danielle Aînées 3 01:03:58 10 kms 9.661 6:12 205 3 382 ERAERTS Willy Vétérans 4 01:04:00 10 kms 9.656 6:12 206 9 436 CASU Rosanna Aînées 2 01:04:07 10 kms 9.638 6:13 207 13 304 VANBOQUESTAELS Marine Dames 01:04:10 10 kms 9.631 6:13 208 70 322 DEBRUE Adrien Seniors 01:04:12 10 kms 9.626 6:13 209 10 413 STRICKLAND Lynne Aînées 2 01:04:18 10 kms 9.611 6:14 210 50 414 STRICKLAND James Vétérans 1 01:04:20 10 kms 9.606 6:14 211 71 334 DIEU Loïc Seniors 01:04:28 10 kms 9.586 6:15 212 51 618 BIENFAIT Marc Vétérans 1 01:04:33 10 kms 9.573 6:16 213 72 363 PINGITORE Dimitri Seniors 01:04:56 10 kms 9.517 6:18 214 14 360 MILIOTO Romanie Dames 01:04:57 10 kms 9.515 6:18 215 30 339 DUVEAU Philippe Vétérans 2 01:04:59 10 kms 9.510 6:18 216 20 389 PHILLIPS Monica Aînées 1 01:06:06 10 kms 9.349 6:25 217 15 665 SERGEANT Véronique Dames 01:06:07 10 kms 9.347 6:25 218 52 468 SAUTELET Sébastien Vétérans 1 01:06:21 10 kms 9.314 6:26 219 31 469 BAUWENS Erik Vétérans 2 01:06:23 10 kms 9.309 6:26 220 21 656 TENNSTEDT Violaine Aînées 1 01:06:45 10 kms 9.258 6:28 221 16 372 SEVENS Isabelle Dames 01:07:06 10 kms 9.210 6:30 222 17 309 BASTIEN Laurence Dames 01:07:08 10 kms 9.205 6:31 223 73 73 LEMAIRE Julien Seniors 01:07:13 10 kms 9.194 6:31 224 11 317 BOQUET Hélène Aînées 2 01:08:40 10 kms 9.000 6:40 225 18 364 PISTIDDA Allessandra Dames 01:08:42 10 kms 8.995 6:40 226 19 332 DEVEL Véronique Dames 01:08:44 10 kms 8.991 6:40 227 32 384 RENARD Patrick Vétérans 2 01:08:49 10 kms 8.980 6:40 228 33 376 DE VYLDER Luc Vétérans 2 01:09:27 10 kms 8.898 6:44 229 5 380 FERAIN Thérèse Aînées 3 01:09:29 10 kms 8.894 6:44 230 74 342 GILLIAUX Antoine Seniors 01:09:51 10 kms 8.847 6:46 231 34 649 COPPIETERS Bruno Vétérans 2 01:10:20 10 kms 8.786 6:49 232 20 366 RODRIGUEZ Hélène Dames 01:10:32 10 kms 8.761 6:50 233 75 337 DUFRASNE Vincent Seniors 01:10:34 10 kms 8.757 6:51 234 76 357 MARIQUE Benjamin Seniors 01:11:06 10 kms 8.691 6:54 235 12 440 BLAIRON Virginie Aînées 2 01:11:27 10 kms 8.649 6:56 236 22 453 BELFIORE Isabelle Aînées 1 01:11:29 10 kms 8.645 6:56 237 13 480 AMICO Giuseppina Aînées 2 01:11:33 10 kms 8.637 6:56 238 53 641 GOFFE François Vétérans 1 01:11:55 10 kms 8.593 6:58 239 77 625 ANTOINE Maxime Seniors 01:12:01 10 kms 8.581 6:59 240 21 626 BOISDENGHIEN Rachel Dames 01:12:04 10 kms 8.575 6:59 241 23 611 TREMOUROUX Catherine Aînées 1 01:12:24 10 kms 8.535 7:01 242 54 608 GRANVILLE Dimitri Vétérans 1 01:12:27 10 kms 8.530 7:02 243 55 351 LENAERTS Malcolm Vétérans 1 01:12:49 10 kms 8.487 7:04 244 22 367 RODRIGUEZ Laura Dames 01:22:22 10 kms 7.503 7:59 245 14 365 RODRIGUEZ Fabienne Aînées 2 01:22:23 10 kms 7.501 7:59
Course : 4 kms
Document PDF de la course
Pla. Pl.Cat Dossard Nom                       Catégorie     Temps     Course   Vitesse Min/Km
_____________________________________________________________________________________________
1 1 100 NEMETH Christian Messieurs 00:14:24 4 kms 16.666 3:36
2 2 130 FOURMANOIR Michaël Messieurs 00:15:11 4 kms 15.806 3:47
3 3 81 VANBELLAIENGH Julien Messieurs 00:16:02 4 kms 14.968 4:00
4 4 90 CANNELLA Justin Messieurs 00:16:28 4 kms 14.574 4:07
5 5 75 LAMBERT Benjamin Messieurs 00:16:43 4 kms 14.356 4:10
6 6 68 RICOUR Hervé Messieurs 00:16:48 4 kms 14.285 4:12
7 7 64 GANASSIN Guillaume Messieurs 00:16:55 4 kms 14.187 4:13
8 8 101 SCHMIT John Messieurs 00:17:01 4 kms 14.103 4:15
9 9 122 BRUSTEN Charles Messieurs 00:17:27 4 kms 13.753 4:21
10 10 49 VIAENE Louis Messieurs 00:17:42 4 kms 13.559 4:25
11 11 65 FORTUNATO Italo Messieurs 00:17:46 4 kms 13.508 4:26
12 12 27 MENUGE Marc Messieurs 00:17:49 4 kms 13.470 4:27
13 13 58 QUERTON Thomas Messieurs 00:18:00 4 kms 13.333 4:30
14 14 102 FRACAS Petru Messieurs 00:18:11 4 kms 13.198 4:32
15 15 129 CECI Michel Messieurs 00:18:26 4 kms 13.019 4:36
16 16 60 SCUTTENAIRE Martin Messieurs 00:19:00 4 kms 12.631 4:45
17 17 21 HERPOEL Robin Messieurs 00:19:02 4 kms 12.609 4:45
18 18 59 QUERTON Gilles Messieurs 00:19:04 4 kms 12.587 4:46
19 19 33 VANDORPE Samuel Messieurs 00:19:06 4 kms 12.565 4:46
20 20 17 GABRIEL Simon Messieurs 00:19:09 4 kms 12.532 4:47
21 1 104 SOLAGNA Manon Dames 00:19:29 4 kms 12.318 4:52 22 21 26 LECOMTE Mathieu Messieurs 00:19:36 4 kms 12.244 4:54 23 22 120 CASTAGNA Tony Messieurs 00:19:41 4 kms 12.193 4:55 24 23 74 LAMBERT Serge Messieurs 00:19:43 4 kms 12.172 4:55 25 24 46 WILMS Noah Messieurs 00:19:48 4 kms 12.121 4:57 26 2 63 VANDERLINDEN Louise Dames 00:19:51 4 kms 12.090 4:57 27 25 57 SCARMURE Loann Messieurs 00:19:54 4 kms 12.060 4:58 28 3 66 DE VOS Véronique Dames 00:20:12 4 kms 11.881 5:03 29 26 54 EL BOUJDAINI Mohamed Messieurs 00:20:14 4 kms 11.861 5:03 30 27 25 LECOMTE Joël Messieurs 00:20:22 4 kms 11.783 5:05 31 28 10 DUPONT Cyril Messieurs 00:20:33 4 kms 11.678 5:08 32 29 22 HERPOEL Thibaut Messieurs 00:20:45 4 kms 11.566 5:11 33 30 137 NDAYISABA Orven Messieurs 00:20:47 4 kms 11.547 5:11 34 31 15 DUQUESNE Loann Messieurs 00:21:03 4 kms 11.401 5:15 35 32 80 PINGITORE Ilario Messieurs 00:21:07 4 kms 11.365 5:16 36 33 77 HORLIN Maxime Messieurs 00:21:15 4 kms 11.294 5:18 37 34 39 BLOMMAERT Simon Messieurs 00:21:23 4 kms 11.223 5:20 38 35 32 THIENPONT Martin Messieurs 00:21:43 4 kms 11.051 5:25 39 4 67 MONMART Anne-Sophie Dames 00:21:48 4 kms 11.009 5:27 40 5 69 ROOSENS Eliane Dames 00:21:52 4 kms 10.975 5:28 41 36 133 APPOERTS Baptiste Messieurs 00:22:13 4 kms 10.802 5:33 42 37 83 LOIRE Maxime Messieurs 00:22:24 4 kms 10.714 5:36 43 38 134 APPAERTS Grégoire Messieurs 00:22:48 4 kms 10.526 5:42 44 39 136 NDAYISABA Janvier Messieurs 00:23:18 4 kms 10.300 5:49 45 40 24 LAURENT Mickael Messieurs 00:23:23 4 kms 10.263 5:50 46 41 82 BOGAERT Bertrand Messieurs 00:23:32 4 kms 10.198 5:53 47 6 87 ARS Charlotte Dames 00:23:40 4 kms 10.140 5:55 48 42 86 ARS Benoît Messieurs 00:23:41 4 kms 10.133 5:55 49 43 79 PINGITORE Fabio Messieurs 00:23:49 4 kms 10.076 5:57 50 44 115 IULIANETTI Renato Messieurs 00:23:52 4 kms 10.055 5:58 51 45 668 WILQUIN Jordan Messieurs 00:23:57 4 kms 10.020 5:59 52 46 11 DUPONT Martin Messieurs 00:24:33 4 kms 9.775 6:08 53 47 119 DEFROYENE Olivier Messieurs 00:24:37 4 kms 9.749 6:09 54 7 103 BIENFAIT Lucille Dames 00:24:40 4 kms 9.729 6:10 55 8 84 ARS Juliette Dames 00:24:42 4 kms 9.716 6:10 56 48 669 TOMMASI David Messieurs 00:24:53 4 kms 9.645 6:13 57 9 138 DEBORESIEUX Marine Dames 00:25:13 4 kms 9.517 6:18 58 10 76 HORLIN Marine Dames 00:25:32 4 kms 9.399 6:23 59 11 28 MEIRHAEGHE Ann Dames 00:25:36 4 kms 9.375 6:24 60 12 85 MARIN Noémie Dames 00:25:46 4 kms 9.314 6:26 61 13 48 REMACLE Astrid Dames 00:25:49 4 kms 9.296 6:27 62 14 41 GERARD Elodie Dames 00:25:51 4 kms 9.284 6:27 63 49 135 DELATTEN Fabien Messieurs 00:25:57 4 kms 9.248 6:29 64 15 30 THIENPONT Marie Dames 00:26:04 4 kms 9.207 6:31 65 16 3 BOQUET Aliénor Dames 00:26:06 4 kms 9.195 6:31 66 17 47 LAURENT Manon Dames 00:26:08 4 kms 9.183 6:32 67 18 126 RIGOTTI Naya Dames 00:27:00 4 kms 8.888 6:45 68 19 91 PECCENINI Barbara Dames 00:27:02 4 kms 8.877 6:45 69 20 8 DESAGRE Sabine Dames 00:27:18 4 kms 8.791 6:49 70 50 132 ROGE Colin Messieurs 00:27:25 4 kms 8.753 6:51 71 21 44 DELMOITIEZ Mareka Dames 00:27:36 4 kms 8.695 6:54 72 22 45 WILMS Juliette Dames 00:27:39 4 kms 8.679 6:54 73 23 19 GENESTE Véronique Dames 00:27:48 4 kms 8.633 6:57 74 24 1 ANDOLINA Gaetana Dames 00:27:57 4 kms 8.586 6:59 75 25 2 AUVERDIN Laurence Dames 00:27:59 4 kms 8.576 6:59 76 26 20 HERBAGE Marlène Dames 00:28:07 4 kms 8.535 7:01 77 51 70 PILLEZ Jean-Pierre Messieurs 00:28:14 4 kms 8.500 7:03 78 27 38 NACTERGAL Marie Dames 00:28:30 4 kms 8.421 7:07 79 28 131 SYNARCFELD ? Vanessa Dames 00:28:44 4 kms 8.352 7:11 80 29 40 MAYNE Flore Dames 00:29:46 4 kms 8.062 7:26 81 30 121 DISCART Isabelle Dames 00:29:48 4 kms 8.053 7:27 82 31 7 DEGREVE Cécile Dames 00:29:49 4 kms 8.049 7:27 83 32 52 RENARD Sophie Dames 00:29:52 4 kms 8.035 7:28 84 52 139 DUPONT Ludovic Messieurs 00:30:00 4 kms 8.000 7:30 85 53 108 ANSIAUX Geoffrey Messieurs 00:30:03 4 kms 7.986 7:30 86 54 117 HOEBEKE Florian Messieurs 00:30:15 4 kms 7.933 7:33 87 55 116 VANDERVAEREN Jonathan Messieurs 00:30:17 4 kms 7.925 7:34 88 56 113 HENNEKENS Gilles Messieurs 00:30:21 4 kms 7.907 7:35 89 33 118 PIERRARD Marie-Aude Dames 00:30:23 4 kms 7.899 7:35 90 57 114 DECOCK Aurélien Messieurs 00:30:25 4 kms 7.890 7:36 91 34 95 DUQUESNE Christelle Dames 00:30:43 4 kms 7.813 7:40 92 35 123 VANNESTE Myriam Dames 00:31:00 4 kms 7.741 7:45 93 36 78 HORLIN Anaïs Dames 00:31:07 4 kms 7.712 7:46 94 37 127 LEMAIRE Gaétane Dames 00:31:22 4 kms 7.651 7:50 95 58 42 POTTIER Michaël Messieurs 00:31:26 4 kms 7.635 7:51 96 38 128 FIXELLES Sonia Dames 00:31:50 4 kms 7.539 7:57 97 39 105 VIRGO Sonia Dames 00:31:53 4 kms 7.527 7:58 98 59 107 COLLE Cyrius Messieurs 00:32:03 4 kms 7.488 8:00 99 40 106 SCHOT Séverine Dames 00:32:08 4 kms 7.468 8:02 100 60 112 DELABERG Mickael Messieurs 00:33:09 4 kms 7.239 8:17 101 61 51 OPDEBEECK Willy Messieurs 00:33:21 4 kms 7.196 8:20 102 41 53 CORDOVERO Laurence Dames 00:33:41 4 kms 7.125 8:25 103 42 94 MALREE Célia Dames 00:34:28 4 kms 6.963 8:37 104 62 93 MALREE Christophe Messieurs 00:34:31 4 kms 6.953 8:37 105 63 97 DEVENIJN Mathis Messieurs 00:35:12 4 kms 6.818 8:48 106 43 98 RENAUD Virginie Dames 00:35:21 4 kms 6.789 8:50 107 44 111 FAUCONNIER Isabelle Dames 00:35:33 4 kms 6.751 8:53 108 64 110 BERTHEMAN Pascal Messieurs 00:35:35 4 kms 6.744 8:53 109 45 124 ROLAND Elodie Dames 00:36:12 4 kms 6.629 9:03 110 46 125 ROLAND Emilie Dames 00:36:14 4 kms 6.623 9:03 111 47 92 BECTE Annamarie Dames 00:38:12 4 kms 6.282 9:33 112 48 96 CANARIS Lucia Dames 00:38:14 4 kms 6.277 9:33
Course : 10 kms Han


Challenge Soignies 2016